Location: West Cummington
(42.4920°N, 72.9680°W)
Time: 09:00:40
(UTC-05:00)

Cosmos 1703 Rocket - Visible Passes

Search period start: 21 November 2017 00:00
Search period end: 01 December 2017 00:00
Orbit: 606 x 634 km, 82.5° (Epoch: 20 November)

Date Brightness Start Highest point End Pass type
(mag) Time Alt. Az. Time Alt. Az. Time Alt. Az.
21 Nov 5.0 04:29:04 10° N 04:33:07 36° ENE 04:37:07 10° SE visible
21 Nov 4.9 06:07:37 10° NW 06:10:43 19° W 06:13:47 10° SW visible
21 Nov 4.7 17:01:38 10° SE 17:05:09 23° E 17:08:40 10° NE visible
21 Nov 5.4 18:38:51 10° SW 18:42:51 31° WNW 18:46:51 10° NNW visible
22 Nov 3.8 04:47:09 15° N 04:50:46 69° E 04:55:04 10° SSE visible
22 Nov 4.0 17:18:20 10° SSE 17:22:33 42° E 17:26:46 10° NNE visible
22 Nov 6.3 18:57:34 10° WSW 19:00:38 18° WNW 19:03:42 10° NNW visible
23 Nov 6.6 03:28:45 11° NE 03:29:58 12° ENE 03:31:44 10° E visible
23 Nov 3.4 05:06:01 26° NNW 05:08:19 62° W 05:12:35 10° S visible
23 Nov 3.5 17:35:35 10° S 17:40:02 80° E 17:44:31 10° N visible
24 Nov 5.8 03:47:38 21° ENE 03:47:50 22° ENE 03:51:11 10° ESE visible
24 Nov 4.2 05:24:54 29° WNW 05:25:45 32° W 05:29:37 10° SSW visible
24 Nov 4.3 17:53:15 10° SSW 17:57:38 54° W 18:02:00 10° N visible
25 Nov 5.1 04:06:31 34° ESE 04:06:31 34° ESE 04:09:37 10° SE visible
25 Nov 5.0 05:43:47 17° W 05:43:47 17° W 05:46:01 10° SW visible
25 Nov 5.5 18:11:25 10° SW 18:15:19 29° WNW 18:19:13 10° NNW visible
26 Nov 5.0 04:25:23 29° SSE 04:25:23 29° SSE 04:27:31 10° SSE visible
26 Nov 3.9 16:50:44 10° SSE 16:54:58 45° E 16:59:14 10° NNE visible
26 Nov 6.4 18:30:13 10° WSW 18:33:07 17° WNW 18:36:00 10° NNW visible
27 Nov 5.7 04:44:11 15° S 04:44:11 15° S 04:44:58 10° S visible
27 Nov 3.6 17:08:01 10° S 17:12:29 87° E 17:16:57 10° N visible
28 Nov 4.5 17:25:46 10° SSW 17:30:05 50° WNW 17:34:25 10° N visible
29 Nov 5.7 17:43:59 10° SW 17:47:47 27° WNW 17:51:35 10° NNW visible
30 Nov 6.4 18:02:54 10° WSW 18:05:35 16° WNW 18:08:16 10° NNW visible
